Regional Weather Roundup
Issued by NWS Charleston, SC

Home | Current Version | Previous Version | Text Only | Print | Product List | Glossary On
Versions: 1 2 3 4 5 6 7 8 9 10 11 12 13 14 15 16 17 18 19 20 21 22 23 24 25 26 27 28 29 30 31 32 33 34 35 36 37 38 39 40 41 42 43 44 45 46 47 48 49 50
000
ASUS42 KCHS 291027
RWRCHS
REGIONAL WEATHER ROUNDUP
NATIONAL WEATHER SERVICE CHARLESTON SC
600 AM EDT SAT AUG 29 2015

NOTE: "FAIR" INDICATES FEW OR NO CLOUDS BELOW 12,000 FEET WITH NO
SIGNIFICANT WEATHER AND/OR OBSTRUCTIONS TO VISIBILITY.

NOT ALL STATIONS ARE QUALITY CONTROLLED BY THE NATIONAL
WEATHER SERVICE. USE DATA WITH CAUTION...ESPECIALLY
DEWPOINT OBSERVATIONS.

SCZ027-030-031-034>040-042>050-291100-
...SOUTHEAST SOUTH CAROLINA...

CITY           SKY/WX    TMP DP  RH WIND       PRES   REMARKS
N CHARLESTON   PTCLDY    71  68  90 NE6       30.12R
WATERFRONT PRK   N/A     74  71  90 N7        30.09S
MOUNT PLEASANT FAIR      72  70  94 N6        30.13R
JOHNS ISLAND   FAIR      73  70  88 N6        30.12S
PINOPOLIS        N/A     75  70  83 E10       30.05R
MONCKS CORNER  FAIR      72  66  83 NE3       30.13S
SUMMERVILLE    FAIR      68  68 100 CALM      30.15R
BEAUFORT MCAS  PTCLDY    73  70  90 NE7       30.12R
BEAUFORT ARPT  FAIR      73  72  94 NE7       30.11R
HILTON HEAD IS NOT AVBL
WALTERBORO     MOSUNNY   72  68  88 CALM      30.14S
ALLENDALE        N/A     70  66  88 CALM      30.13S

...SOUTHERN MIDLANDS AND PEE DEE...

CITY           SKY/WX    TMP DP  RH WIND       PRES   REMARKS
GEORGETOWN     NOT AVBL
KINGSTREE      NOT AVBL
ORANGEBURG     PTCLDY    67  62  84 NE3       30.14S
BARNWELL       FAIR      70  64  83 NE6       30.15S
AIKEN          FAIR      63  59  88 NE6       30.19R
MANNING        FAIR      63  63 100 CALM      30.15R
COLUMBIA       PTCLDY    63  59  87 CALM      30.16R
SUMTER         PTCLDY    64  60  89 NE6       30.14R FOG
FLORENCE       PTCLDY    66  63  90 N5        30.16R
MYRTLE BEACH   PTCLDY    70  63  78 N5        30.15S
N MYRTLE BEACH CLEAR     67  65  93 N3        30.13R

$$

GAZ063-065-086>088-099>101-113>116-118-119-134>141-150-291100-
...SOUTHEAST GEORGIA...

CITY           SKY/WX    TMP DP  RH WIND       PRES   REMARKS
SAVANNAH ARPT  CLOUDY    74  70  87 NE9       30.10
HUNTER AAF     PTCLDY    75  75 100 NE3       30.08S
FORT STEWART   CLOUDY    74  71  91 NE1       30.08R
STATESBORO     PTCLDY    71  71 100 CALM      30.12R
SYLVANIA       MOSUNNY   73  71  96 E5        30.14R
CLAXTON        NOT AVBL

...CSRA...CENTRAL AND FAR SOUTHEAST GEORGIA...

CITY           SKY/WX    TMP DP  RH WIND       PRES   REMARKS
THOMSON        PTCLDY    66  66 100 CALM      30.19S
AUGUSTA-BUSH   PTCLDY    65  65 100 CALM      30.13S FOG
AUGUSTA-DANIEL PTCLDY    71  65  81 CALM      30.15S
SWAINSBORO     FAIR     N/A N/A N/A NE5       30.14R
VIDALIA        CLOUDY    73  70  88 CALM      30.12R
EASTMAN        FAIR      74  74 100 CALM      30.15R
HAZLEHURST     FAIR      75  75 100 CALM      30.11R
ALMA           CLOUDY    74  72  93 CALM      30.10R
WAYCROSS       CLOUDY    77  76  99 CALM      30.09S
JESUP          FAIR      77  75  94 NE3       30.10R
BAXLEY         FAIR      75  73  94 NE3       30.11R
BRUNSWICK      CLOUDY    70  70 100 CALM      30.10R
SAINT SIMONS   LGT RAIN  76  71  85 N8        30.07S

$$

SCZ027-028-034-036>038-045-046-048>050-GAZ119-141-291100-
...LAKE AND SUPPLEMENTAL COASTAL OBSERVATIONS...

STATION/POSITION TIME  TEMP    WIND        PRES    WAVE   SWELL
                       AIR SEA DIR/SP/G            HT/PER HT/PER/DIR
                 (UTC) (F)     (DEG/KT/KT) (MB)    (FT/S) (FT/S/D)
UPR LAKE MARION  NOT AVBL
WINYAH BAY       0900   72     350/  5     1019.0S
LAKE MURRAY      1000   68      30/  1/  3 1021.0R
ACE BASIN NERRS  NOT AVBL
FORT PULASKI     NOT AVBL
SAPELO ISLAND    1000   78      10/  8     1019.0R

$$

ANZ835-935-AMZ111-154-330-350-352-354-370-450-454-472-291100-
...C-MAN AND BUOY OBSERVATIONS...

STATION/POSITION TIME  TEMP    WIND        PRES    WAVE   SWELL
                       AIR SEA DIR/SP/G            HT/PER HT/PER/DIR
                 (UTC) (F)     (DEG/KT/KT) (MB)    (FT/S) (FT/S/D)
BUOY 41004       0950   81 84   60/ 14/ 17 1018.3F   4/ 6   3/ 8
BUOY 41008       0950   82 85   80/ 12/ 14 1018.4F   3/ 6   2/ 70/ 6
FOLLY BEACH CMAN 1000   75     350/  8/ 10 1019.8R
CAPERS NEARSHORE 0908   78      20/ 12/ 16 1019.5S
FRIPP NEARSHORE  0900   81      80/ 14/ 16 1018.6F


STATION/POSITION TIME  TEMP    WIND        PRES    WAVE   SWELL
                       AIR SEA DIR/SP/G            HT/PER HT/PER/DIR
                 (UTC) (F)     (DEG/KT/KT) (MB)    (FT/S) (FT/S/D)
5E ST. MARYS GA  0921      86                N/A     3/11   2/100/11
FRYING PAN BUOY  0950   80 81   50/ 16/ 19 1019.3R   5/ 6   2/110/11
BUOY 41025       0950   78 82   40/ 16/ 19 1019.6R   5/11   3/100/11
CAPE LOOKOUT NC  1000   78      40/ 19/ 23 1019.4F
BUOY 41002       0950   82 83  210/ 12/ 14 1019.2S   4/11   3/ 80/11
BUOY 41010       0920   83 85  130/ 10/ 12 1018.1R
ST AUGUSTINE FL  1000   81 85  160/  5/  6 1018.7R


$$


USA.gov is the U.S. government's official web portal to all federal, state and local government web resources and services.